#timestamp,LO_Frequency,Hit 
1505995215.3,286046994.1,N
1505995235.2,286046995.6,N
1505995255.9,286046997.1,N
1505995275.7,286046994.6,N
1505995295.6,286046994.7,N
1505995315.4,286046991.1,P
1505995335.2,286046998.1,N
1505995355.1,286047001.7,N
1505995356.0,286047001.7,N
1505995375.8,286047004.4,N
1505995395.6,286047003.2,N
1505995415.5,286047001.5,N
1505995435.3,286047000.2,N
1505995455.1,286047000.1,N
1505995475.9,286046998.9,N
1505995495.7,286047004.0,N
1505995515.5,286047006.0,N
1505995535.3,286047005.8,N
1505995555.2,286047004.1,N
1505995575.9,286047001.8,N
1505995595.7,286047004.9,N
1505995615.6,286047007.2,N
1505995635.4,286047005.5,N
1505995655.2,286047004.9,N
1505995675.1,286047002.9,N
1505995676.0,286047002.9,N
1505995695.8,286047002.1,N
1505995715.6,286047003.9,N
1505995735.5,286046998.9,N
1505995755.3,286046998.4,N
1505995775.1,286047001.0,N
1505995795.9,286046998.5,N
1505995815.7,286046997.7,N
1505995835.5,286046993.9,N
1505995855.3,286046995.0,N
1505995875.2,286046996.1,N
1505995895.0,286046997.3,N
1505995895.9,286046997.3,N
1505995915.7,286046996.2,N
1505995935.6,286046996.8,N
1505995955.4,286046996.6,N
1505995975.2,286046997.0,N
1505995995.1,286046997.2,N
1505995996.0,286046997.2,N
1505996015.8,286046999.1,N
1505996035.6,286046999.0,N
1505996055.5,286046997.2,N
1505996075.3,286046997.5,N
1505996095.1,286047000.4,N
1505996115.9,286047001.5,N
1505996135.7,286047001.8,N
1505996155.5,286046998.5,N
1505996175.3,286047000.8,N
1505996195.2,286046996.7,N
1505996215.0,286046996.8,N
1505996215.9,286046996.8,N
1505996235.7,286046998.1,N
1505996255.6,286047000.8,N
1505996275.4,286046999.4,N
1505996295.2,286047000.3,N
1505996315.1,286047000.5,N
1505996316.0,286047000.5,N
1505996335.8,286046996.6,N
1505996355.6,286046999.3,N
1505996375.5,286046999.0,N
1505996395.3,286046996.9,N
1505996415.1,286046999.6,N
1505996435.9,286047000.4,N
1505996455.7,286046999.0,N
1505996475.5,286046997.0,N
1505996495.4,286046996.5,N
1505996515.2,286047001.2,N
1505996535.0,286046998.4,N
1505996535.9,286046998.4,N
1505996555.8,286046996.8,N
1505996575.6,286046997.4,N
1505996595.4,286046996.7,N
1505996615.3,286046995.1,N
1505996635.1,286046993.5,P
1505996636.0,286046993.5,N
1505996655.8,286046999.2,N
1505996675.7,286046995.4,N
1505996695.5,286046997.6,N
1505996715.3,286046999.1,N
1505996735.2,286047000.6,N
1505996755.9,286046999.3,N
1505996775.7,286046994.3,N
1505996795.6,286046992.1,P
1505996815.4,286046999.6,N
1505996835.2,286046998.4,N
1505996855.1,286047000.5,N
1505996856.0,286047000.5,N
1505996875.8,286047001.2,N
1505996895.6,286047002.6,N
1505996915.4,286047001.4,N
1505996935.3,286047004.0,N
1505996955.1,286047004.0,N
1505996975.8,286047004.3,N
1505996995.7,286047004.1,N
1505997015.5,286047002.6,N
1505997035.3,286047004.3,N
1505997055.2,286047003.8,N
1505997075.9,286047004.2,N
1505997095.7,286047001.3,N
1505997115.6,286047001.7,N
1505997135.4,286047000.4,N
1505997155.2,286046998.7,N
1505997175.0,286046999.1,N
1505997176.0,286046999.1,N
1505997195.8,286046998.4,N
1505997215.6,286047000.4,N
1505997235.4,286047002.5,N
1505997255.3,286047002.0,N
1505997275.1,286047001.8,N
1505997295.8,286047001.5,N
1505997315.7,286047001.7,N
1505997335.5,286047001.8,N
1505997355.3,286047002.3,N
1505997375.2,286046997.3,N
1505997395.9,286046996.5,N
1505997415.7,286046998.8,N
1505997435.6,286047000.0,N
1505997455.4,286047002.4,N
1505997475.2,286047000.6,N
1505997495.1,286046999.8,N
1505997496.0,286046999.8,N
1505997515.8,286047000.4,N
1505997535.6,286047001.1,N
1505997555.4,286046995.2,N
1505997575.3,286046989.4,P
1505997595.1,286046992.8,N
1505997615.9,286046993.6,N
1505997635.7,286046995.4,N
1505997655.5,286046996.5,N
1505997675.3,286046998.6,N
1505997695.2,286046998.7,N
1505997715.0,286046998.1,N
1505997715.9,286046998.1,N
1505997735.7,286046999.9,N
1505997755.6,286046997.4,N
1505997775.4,286046995.3,N
1505997795.2,286046996.0,N
1505997815.1,286046995.9,N
1505997816.0,286046995.9,N
1505997835.8,286046996.6,N
1505997855.6,286047000.6,N
1505997875.5,286046999.2,N
1505997895.3,286046998.9,N
1505997915.1,286047000.8,N
1505997935.9,286046997.0,N
1505997955.7,286046998.4,N
1505997975.5,286046994.9,N
1505997995.3,286046996.9,N
1505998015.2,286046996.5,N
1505998035.0,286046999.2,N
1505998035.9,286046999.2,N
1505998055.7,286046997.8,N
1505998075.6,286046997.2,N
1505998095.4,286046994.8,N
1505998115.2,286046993.5,N
1505998135.1,286046995.4,N
1505998136.0,286046995.4,N
1505998155.8,286046996.3,N
1505998175.6,286046994.1,P
1505998195.5,286046995.2,P
1505998215.3,286046995.2,P
1505998235.1,286046995.4,P
1505998255.9,286046999.8,P
1505998275.7,286047000.7,N
1505998295.5,286046999.8,N
1505998315.4,286047004.3,N
1505998335.2,286047001.6,N
1505998355.0,286047001.7,N
1505998355.9,286047001.7,N
1505998375.8,286047001.1,N
1505998395.6,286046996.6,N
1505998415.4,286046998.4,N
1505998435.3,286046998.1,N
1505998455.1,286046999.2,N
1505998456.0,286046999.2,N
1505998475.8,286046998.2,N
1505998495.7,286046999.1,N
1505998515.5,286046999.6,N
1505998535.3,286046998.9,N
1505998555.1,286047000.7,N
1505998575.9,286047001.5,N
1505998595.7,286047000.5,N
1505998615.5,286046998.0,N
1505998635.4,286046995.2,N
1505998655.2,286046994.5,N
1505998675.0,286046995.9,N
1505998675.9,286046995.9,N
1505998695.8,286046994.8,N
1505998715.6,286046997.9,N
1505998735.4,286046999.4,N
1505998755.3,286046994.1,N
1505998775.1,286046993.0,N
1505998776.0,286046993.0,N
1505998795.8,286046996.4,N
